Regional Weather Roundup
Issued by NWS Albany, NY

Home | Current Version | Previous Version | Graphics & Text | Print | Product List | Glossary On
Versions: 1 2 3 4 5 6 7 8 9 10 11 12 13 14 15 16 17 18 19 20 21 22 23 24 25 26 27
000
ASUS41 KALY 231910
RWRALY

NEW YORK STATE HOURLY WEATHER ROUNDUP
NATIONAL WEATHER SERVICE ALBANY NY
300 PM EDT SUN APR 23 2017

NOTE: "FAIR" INDICATES FEW OR NO CLOUDS BELOW 12,000 FEET WITH NO
SIGNIFICANT WEATHER AND/OR NO OBSTRUCTIONS TO VISIBILITY.

NYZ032-033-038>043-046>054-057>066-NYZ062>081-082-084-232000-
EAST


CITY           SKY/WX    TMP DP  RH WIND       PRES   REMARKS
ALBANY         MOSUNNY   66  34  30 SE7       30.05F
GLENS FALLS    SUNNY     65  37  35 S10       30.02F
POUGHKEEPSIE   SUNNY     65  31  28 N3        30.04F
NEWBURGH       MOSUNNY   64  37  36 CALM      30.06F
MONTGOMERY     SUNNY     65  30  27 NW3       30.05F
WHITE PLAINS   SUNNY     65  36  34 VRB6      30.06F
ISLIP          PTSUNNY   56  41  57 S12       30.09F
NEW YORK CITY  MOSUNNY   64  34  32 S9        30.07F
CENTRAL PARK   MOSUNNY   64  34  32 CALM      30.10F
$$

NYZ005>009-017-018-044>046-055-056-232000-
CENTRAL


CITY           SKY/WX    TMP DP  RH WIND       PRES   REMARKS
FULTON         SUNNY     63  37  38 W6        30.05F
SYRACUSE       MOSUNNY   64  36  35 VRB6      30.04F
ROME           SUNNY     62  28  27 W7        30.06F
ELMIRA         SUNNY     67  33  28 S6        30.04F
BINGHAMTON     SUNNY     62  30  29 SW7       30.05F
MONTICELLO     SUNNY     64  34  32 SW5       30.07S
$$

NYZ026>034-041>043-087-232000-
NORTH


CITY           SKY/WX    TMP DP  RH WIND       PRES   REMARKS
WATERTOWN      SUNNY     57  38  48 W13       30.06F
FORT DRUM      NOT AVBL
OGDENSBURG     FAIR      62  36  37 SW18G24   30.00F
MASSENA        SUNNY     63  37  38 SW17      29.99F
SARANAC LAKE   SUNNY     61  30  31 SW14      29.99F
PLATTSBURGH    SUNNY     61  36  39 SE13      29.99F
$$

NYZ001>004-010>016-019>021-085-232000-
WEST


CITY           SKY/WX    TMP DP  RH WIND       PRES   REMARKS
NIAGARA FALLS  SUNNY     64  37  36 SW12      30.05F
BUFFALO        MOSUNNY   60  27  28 SW9       30.07F
DUNKIRK        SUNNY     55  35  47 W6        30.09F
JAMESTOWN      SUNNY     61  25  25 CALM      30.06F
WELLSVILLE     SUNNY     65  26  23 CALM      30.05F
ROCHESTER      MOSUNNY   65  40  39 E6        30.05F
PENN YAN       SUNNY     64  36  35 NE6       30.05F
$$

             KEY
       WCI = WIND CHILL INDEX
       VSB = VISIBILITY
       HX  = HEAT INDEX
$$




USA.gov is the U.S. government's official web portal to all federal, state and local government web resources and services.